QPF
0.00 0.01 0.03 0.00 0.00 0.00 0.00 0.00 0.00 0.00 0.00 0.07 0.05 0.00 0.00 0.00 0.00 0.00 0.00 0.00 0.00 0.00 0.00 0.00 0.00 0.00 0.00 0.00 0.00 0.00 0.00 0.00 0.00 0.00 0.00 0.00 0.00 0.00 0.00 0.00 0.00 0.01 0.02 0.01
0.00 0.00 0.00 0.00 0.00 0.00 0.00 0.00 0.00 0.00 0.00 0.00 0.00 0.00 0.00 0.00 0.00 0.00 0.00 0.00 0.00 0.00 0.00 0.00 0.00 0.00 0.00 0.00 0.00 0.00 0.00 0.00 0.00 0.00 0.00 0.00 0.00 0.00 0.00 0.00 0.00 0.02 0.03 0.01
0.00 0.00 0.00 0.00 0.00 0.00 0.00 0.00 0.00 0.00 0.00 0.00 0.00 0.00 0.00 0.00 0.00 0.00 0.00 0.00 0.00 0.00 0.00 0.00 0.00 0.00 0.00 0.00 0.00 0.00 0.00 0.00 0.00 0.00 0.00 0.00 0.00 0.00 0.00 0.00 0.00 0.01 0.03 0.00
0.00 0.00 0.00 0.00 0.00 0.00 0.00 0.00 0.00 0.00 0.00 0.00 0.00 0.02 0.02 0.00 0.00 0.00 0.00 0.00 0.00 0.00 0.00 0.00 0.00 0.00 0.00 0.00 0.00 0.00 0.00 0.00 0.00 0.00 0.00 0.00 0.00 0.00 0.00 0.00 0.00 0.00 0.02 0.01
0.00 0.00 0.00 0.00 0.00 0.00 0.00 0.00 0.00 0.00 0.00 0.00 0.00 0.03 0.01 0.00 0.00 0.00 0.00 0.00 0.00 0.00 0.00 0.00 0.00 0.00 0.00 0.00 0.00 0.00 0.00 0.00 0.00 0.00 0.00 0.00 0.00 0.00 0.00 0.00 0.00 0.02 0.03 0.03
0.00 0.00 0.00 0.00 0.00 0.00 0.00 0.00 0.00 0.00 0.00 0.00 0.00 0.02 0.01 0.00 0.00 0.00 0.00 0.00 0.00 0.00 0.00 0.00 0.00 0.00 0.00 0.00 0.00 0.00 0.00 0.00 0.00 0.00 0.00 0.00 0.00 0.00 0.01 0.06 0.16 0.12 0.54 1.29
0.00 0.00 0.00 0.00 0.00 0.00 0.00 0.00 0.00 0.00 0.00 0.00 0.00 0.00 0.00 0.00 0.00 0.00 0.00 0.02 0.00 0.00 0.00 0.00 0.00 0.00 0.00 0.00 0.00 0.00 0.00 0.00 0.00 0.00 0.00 0.00 0.00 0.01 0.02 0.07 0.16 0.11 0.47 1.07
0.00 0.00 0.00 0.00 0.00 0.00 0.00 0.00 0.00 0.00 0.00 0.00 0.00 0.00 0.00 0.00 0.00 0.00 0.04 0.07 0.02 0.00 0.00 0.00 0.00 0.00 0.00 0.00 0.00 0.00 0.00 0.00 0.00 0.00 0.00 0.00 0.00 0.00 0.00 0.04 0.06 0.05 0.09 0.30
0.00 0.00 0.00 0.00 0.00 0.00 0.00 0.00 0.00 0.00 0.00 0.00 0.01 0.00 0.00 0.00 0.03 0.08 0.37 0.19 0.04 0.02 0.00 0.00 0.00 0.00 0.00 0.00 0.00 0.00 0.00 0.00 0.00 0.00 0.00 0.00 0.00 0.00 0.00 0.00 0.00 0.00 0.02 0.03
0.00 0.00 0.00 0.00 0.00 0.00 0.00 0.00 0.00 0.00 0.00 0.00 0.00 0.00 0.01 0.02 0.05 0.19 0.58 0.64 0.10 0.13 0.06 0.00 0.00 0.00 0.00 0.00 0.00 0.00 0.00 0.00 0.00 0.00 0.00 0.00 0.00 0.00 0.00 0.00 0.00 0.00 0.00 0.03
0.00 0.00 0.00 0.00 0.00 0.00 0.00 0.00 0.00 0.00 0.00 0.00 0.00 0.00 0.00 0.01 0.22 0.24 0.32 0.15 0.11 0.07 0.03 0.00 0.00 0.00 0.00 0.00 0.00 0.00 0.00 0.00 0.00 0.00 0.00 0.00 0.00 0.00 0.00 0.00 0.00 0.00 0.00 0.00
0.00 0.00 0.00 0.00 0.00 0.00 0.00 0.00 0.00 0.00 0.00 0.00 0.00 0.00 0.00 0.00 0.01 0.07 0.05 0.06 0.06 0.02 0.00 0.00 0.00 0.00 0.00 0.00 0.00 0.00 0.00 0.00 0.00 0.00 0.00 0.00 0.00 0.00 0.00 0.00 0.00 0.00 0.00 0.00
0.00 0.00 0.00 0.00 0.00 0.00 0.00 0.00 0.00 0.00 0.00 0.00 0.00 0.00 0.00 0.00 0.00 0.00 0.01 0.03 0.01 0.00 0.00 0.00 0.00 0.00 0.00 0.00 0.00 0.00 0.00 0.00 0.00 0.00 0.00 0.00 0.01 0.01 0.01 0.00 0.00 0.00 0.00 0.00
0.00 0.00 0.00 0.00 0.00 0.00 0.00 0.00 0.00 0.00 0.00 0.00 0.00 0.00 0.00 0.00 0.00 0.03 0.06 0.04 0.00 0.00 0.00 0.00 0.00 0.00 0.00 0.00 0.00 0.00 0.00 0.00 0.00 0.01 0.01 0.01 0.03 0.04 0.06 0.04 0.02 0.00 0.01 0.01
0.00 0.00 0.00 0.00 0.00 0.00 0.00 0.00 0.00 0.00 0.00 0.00 0.00 0.00 0.00 0.03 0.08 0.26 0.08 0.06 0.01 0.00 0.00 0.00 0.00 0.00 0.00 0.00 0.00 0.00 0.00 0.00 0.00 0.00 0.00 0.00 0.00 0.00 0.01 0.02 0.02 0.01 0.01 0.02
0.00 0.00 0.00 0.00 0.00 0.00 0.00 0.00 0.00 0.00 0.00 0.00 0.00 0.00 0.00 0.00 0.04 0.20 0.06 0.06 0.05 0.02 0.00 0.00 0.00 0.00 0.00 0.00 0.00 0.00 0.00 0.00 0.00 0.00 0.00 0.01 0.02 0.01 0.00 0.01 0.02 0.02 0.03 0.05
0.00 0.00 0.00 0.00 0.00 0.00 0.00 0.00 0.00 0.00 0.00 0.00 0.00 0.00 0.00 0.00 0.01 0.01 0.02 0.03 0.06 0.02 0.00 0.00 0.00 0.00 0.00 0.00 0.00 0.00 0.00 0.00 0.00 0.00 0.00 0.00 0.01 0.01 0.00 0.00 0.00 0.00 0.00 0.00
0.00 0.00 0.00 0.00 0.00 0.00 0.00 0.00 0.00 0.00 0.00 0.00 0.00 0.00 0.00 0.00 0.00 0.00 0.00 0.00 0.02 0.00 0.00 0.01 0.01 0.01 0.01 0.00 0.00 0.00 0.00 0.00 0.00 0.00 0.00 0.00 0.00 0.00 0.00 0.00 0.00 0.00 0.00 0.00
0.00 0.00 0.00 0.00 0.00 0.00 0.00 0.00 0.00 0.00 0.00 0.00 0.00 0.00 0.00 0.00 0.01 0.00 0.00 0.00 0.00 0.00 0.02 0.02 0.02 0.02 0.00 0.00 0.00 0.00 0.00 0.00 0.00 0.00 0.00 0.00 0.00 0.00 0.00 0.00 0.00 0.00 0.00 0.00
0.00 0.00 0.00 0.00 0.00 0.00 0.00 0.00 0.00 0.00 0.00 0.00 0.00 0.00 0.00 0.00 0.00 0.00 0.00 0.00 0.00 0.01 0.01 0.00 0.00 0.00 0.00 0.00 0.00 0.00 0.00 0.00 0.00 0.00 0.00 0.00 0.00 0.00 0.00 0.00 0.00 0.00 0.00 0.00
0.00 0.00 0.00 0.00 0.00 0.00 0.00 0.00 0.00 0.00 0.00 0.00 0.00 0.00 0.00 0.00 0.00 0.00 0.00 0.00 0.01 0.00 0.00 0.00 0.00 0.00 0.00 0.00 0.00 0.00 0.00 0.00 0.00 0.00 0.00 0.00 0.00 0.00 0.00 0.00 0.00 0.00 0.00 0.00
0.00 0.00 0.00 0.00 0.00 0.00 0.00 0.00 0.00 0.00 0.00 0.00 0.00 0.00 0.00 0.00 0.00 0.00 0.01 0.00 0.00 0.00 0.00 0.00 0.00 0.00 0.00 0.00 0.00 0.00 0.00 0.00 0.00 0.00 0.00 0.00 0.00 0.00 0.00 0.00 0.00 0.00 0.00 0.00
0.00 0.00 0.00 0.00 0.00 0.00 0.00 0.00 0.00 0.00 0.00 0.00 0.00 0.00 0.00 0.00 0.00 0.00 0.00 0.00 0.00 0.00 0.00 0.00 0.00 0.00 0.00 0.00 0.00 0.00 0.00 0.00 0.00 0.00 0.00 0.00 0.00 0.00 0.00 0.00 0.00 0.00 0.00 0.00
0.00 0.00 0.00 0.00 0.00 0.00 0.00 0.01 0.00 0.00 0.00 0.00 0.00 0.00 0.00 0.00 0.00 0.00 0.00 0.00 0.00 0.00 0.00 0.00 0.00 0.00 0.00 0.00 0.00 0.00 0.00 0.00 0.00 0.00 0.00 0.00 0.00 0.00 0.00 0.00 0.00 0.00 0.00 0.00
0.00 0.00 0.00 0.00 0.00 0.00 0.00 0.02 0.01 0.00 0.00 0.00 0.00 0.00 0.00 0.00 0.00 0.00 0.00 0.00 0.00 0.00 0.00 0.00 0.00 0.00 0.00 0.00 0.00 0.00 0.00 0.00 0.00 0.00 0.00 0.00 0.00 0.00 0.00 0.00 0.00 0.00 0.00 0.00
0.00 0.00 0.00 0.00 0.00 0.00 0.00 0.00 0.00 0.00 0.00 0.00 0.00 0.00 0.00 0.00 0.00 0.00 0.00 0.00 0.00 0.00 0.00 0.00 0.00 0.00 0.00 0.00 0.00 0.00 0.00 0.00 0.00 0.00 0.00 0.00 0.00 0.00 0.00 0.00 0.00 0.00 0.00 0.00
MSLP
1000.92 1003.35 1004.57 1003.03 1001.85 1000.78 999.94 999.68 999.43 999.28 1000.21 1002.97 1004.67 1004.71 1005.20 1005.19 1005.74 1006.91 1007.87 1008.53 1009.15 1009.31 1009.60 1010.23 1010.80 1011.50 1012.40 1012.97 1013.52 1013.86 1014.29 1014.73 1014.88 1015.55 1015.90 1016.09 1016.04 1015.68 1015.44 1015.49 1015.83 1016.39 1016.82 1017.04
1000.91 1001.36 1001.04 1000.47 999.96 999.40 998.63 998.83 998.78 998.96 999.49 1001.50 1003.79 1004.68 1004.94 1004.98 1005.46 1006.08 1007.01 1007.79 1008.36 1008.73 1009.27 1009.93 1010.67 1011.53 1012.14 1012.64 1013.12 1013.71 1014.17 1014.63 1014.72 1015.12 1015.37 1015.70 1015.64 1015.39 1015.12 1014.97 1015.49 1015.83 1016.34 1016.71
1000.80 1000.15 999.30 999.33 998.74 998.61 998.14 998.10 998.36 998.81 999.55 1001.10 1002.85 1004.67 1004.60 1004.92 1005.37 1006.06 1006.54 1007.17 1007.80 1008.32 1009.05 1009.73 1010.24 1010.94 1011.68 1012.48 1012.86 1013.46 1014.02 1014.29 1014.26 1014.49 1015.00 1015.40 1015.31 1015.32 1015.23 1015.09 1015.26 1015.64 1016.11 1016.58
1000.05 998.69 998.55 998.38 998.01 997.80 997.70 997.54 997.77 998.63 999.99 1001.79 1001.82 1005.19 1005.70 1005.49 1005.53 1005.73 1006.10 1006.40 1007.20 1008.02 1008.59 1009.28 1009.80 1010.44 1010.92 1011.70 1012.41 1013.08 1013.66 1013.94 1013.99 1014.24 1014.72 1015.06 1015.28 1015.35 1014.96 1014.88 1015.13 1015.44 1015.73 1016.00
999.40 998.61 997.88 997.63 997.28 997.06 997.32 997.27 997.95 998.71 999.80 1001.04 1004.01 1005.75 1006.30 1006.24 1005.93 1005.55 1005.71 1005.82 1006.03 1006.79 1007.65 1008.39 1009.14 1009.70 1010.27 1010.99 1011.73 1012.37 1013.15 1013.42 1013.55 1013.84 1014.26 1014.73 1014.92 1014.82 1014.46 1014.76 1015.14 1015.39 1014.84 1014.69
998.99 997.66 997.27 996.64 996.62 996.76 996.93 997.46 998.09 998.90 1000.08 1002.86 1004.57 1005.41 1006.60 1006.00 1004.61 1005.50 1005.38 1005.47 1005.53 1005.99 1006.75 1007.38 1008.19 1009.13 1009.69 1010.37 1011.11 1011.74 1012.48 1012.85 1013.08 1013.40 1013.76 1014.09 1014.41 1014.47 1014.62 1015.24 1015.33 1015.13 1015.89 1015.86
998.54 997.48 996.61 996.34 996.53 996.58 996.95 997.95 998.99 1000.27 1001.14 1002.97 1004.08 1005.38 1005.08 1005.31 1005.79 1005.88 1006.35 1006.38 1005.49 1005.64 1006.14 1006.80 1007.24 1008.06 1008.90 1009.61 1010.25 1011.01 1011.74 1012.26 1012.50 1012.80 1013.06 1013.25 1013.54 1013.87 1014.13 1014.80 1014.99 1015.30 1016.45 1016.31
998.35 997.16 996.23 995.81 996.05 996.37 996.60 997.36 998.97 1000.24 1001.05 1002.94 1003.92 1006.00 1007.82 1007.10 1006.62 1006.80 1006.63 1007.43 1006.33 1005.42 1005.39 1005.92 1006.39 1006.67 1007.33 1008.17 1009.02 1009.59 1010.38 1011.08 1011.51 1011.86 1012.25 1012.43 1012.77 1013.15 1013.39 1013.89 1014.55 1014.44 1014.98 1015.62
997.50 996.66 995.71 995.24 995.41 996.02 996.50 997.10 997.64 999.04 999.86 1003.89 1006.05 1007.38 1007.65 1007.43 1007.41 1007.90 1007.32 1006.81 1005.46 1005.88 1004.35 1004.67 1005.13 1005.68 1006.34 1006.96 1007.60 1008.26 1009.09 1009.77 1010.38 1010.74 1011.43 1011.96 1012.31 1012.72 1012.92 1013.17 1013.80 1013.60 1013.58 1014.41
996.45 996.60 995.93 995.45 995.31 995.67 996.22 996.69 997.64 998.99 1000.84 1003.64 1006.09 1007.66 1008.16 1009.20 1009.37 1009.96 1009.55 1007.44 1006.21 1007.28 1007.59 1004.09 1004.44 1005.20 1005.74 1006.08 1006.66 1007.40 1008.14 1008.71 1009.27 1009.89 1010.70 1011.27 1011.70 1012.12 1012.46 1012.85 1013.18 1013.42 1013.47 1013.70
995.80 996.47 996.37 996.01 996.10 996.40 996.75 997.16 998.01 998.96 1000.49 1002.36 1005.29 1007.40 1008.74 1009.30 1010.30 1010.73 1011.11 1009.09 1009.16 1009.08 1007.09 1004.61 1004.66 1004.31 1005.19 1005.59 1006.29 1006.84 1007.77 1008.60 1009.34 1009.84 1010.36 1010.98 1011.48 1011.78 1012.16 1012.47 1012.74 1012.95 1013.19 1013.36
995.81 996.51 996.92 996.60 996.50 997.32 997.18 997.11 997.74 999.49 1000.69 1002.25 1004.35 1007.73 1008.32 1009.04 1009.83 1010.24 1009.75 1010.22 1009.51 1008.95 1004.52 1005.00 1005.02 1005.09 1005.13 1005.22 1005.93 1006.82 1007.65 1008.46 1009.05 1009.44 1010.09 1010.56 1010.94 1011.26 1011.62 1011.89 1012.00 1012.12 1012.41 1012.66
996.48 997.16 997.82 997.69 997.74 997.20 997.33 997.25 997.17 998.04 999.65 1001.98 1003.93 1007.02 1007.67 1008.40 1009.37 1008.44 1008.02 1008.27 1006.72 1005.10 1005.43 1005.69 1005.69 1005.98 1006.06 1006.27 1006.57 1007.07 1007.72 1008.48 1008.89 1009.33 1009.77 1010.04 1010.31 1010.67 1010.95 1011.18 1011.19 1011.27 1011.59 1011.75
996.50 997.31 998.06 998.53 998.48 997.79 997.41 997.04 997.25 998.00 999.92 1001.47 1003.03 1005.79 1007.29 1007.95 1007.52 1007.33 1006.60 1007.06 1006.55 1006.07 1006.01 1006.24 1006.55 1006.78 1007.00 1007.20 1007.39 1007.70 1008.21 1008.73 1009.05 1009.37 1009.70 1009.72 1009.97 1010.54 1010.86 1010.84 1010.99 1010.85 1010.78 1011.00
996.73 997.65 998.02 998.13 998.18 997.75 997.39 997.00 997.14 997.80 998.57 1000.06 1002.23 1003.83 1005.40 1005.22 1004.63 1005.65 1005.81 1005.92 1006.22 1006.84 1006.10 1006.38 1006.99 1007.66 1007.67 1007.77 1008.26 1008.69 1008.97 1009.31 1009.68 1010.05 1010.23 1010.32 1010.46 1010.51 1010.73 1010.94 1010.89 1010.65 1010.71 1010.77
996.90 997.80 998.22 998.68 998.09 997.49 997.11 996.72 996.71 996.92 997.53 998.48 999.92 1002.60 1003.49 1004.38 1004.57 1004.47 1004.68 1005.26 1006.10 1007.01 1006.27 1006.83 1007.49 1007.82 1007.88 1008.46 1009.01 1009.35 1009.66 1009.91 1010.12 1010.52 1010.90 1011.12 1010.94 1010.84 1010.97 1011.05 1011.07 1010.99 1010.90 1010.88
997.24 997.99 998.79 999.12 998.33 997.53 997.12 996.37 996.13 996.34 996.81 997.67 999.02 1000.31 1002.35 1004.32 1004.27 1003.97 1004.36 1005.14 1006.01 1006.98 1006.34 1007.21 1007.45 1007.84 1008.52 1009.03 1009.41 1010.01 1010.32 1010.57 1010.96 1011.28 1011.59 1011.68 1011.60 1011.60 1011.58 1011.42 1011.39 1011.35 1011.30 1011.25
997.48 998.37 998.85 999.23 998.67 998.06 996.91 995.76 995.53 995.88 996.31 996.82 997.52 1000.30 1001.27 1001.98 1002.63 1003.53 1003.80 1004.51 1006.10 1005.23 1006.30 1007.17 1007.59 1008.44 1009.05 1009.61 1010.10 1010.54 1010.93 1011.34 1011.69 1012.02 1012.24 1012.35 1012.39 1012.44 1012.40 1012.31 1012.19 1011.99 1011.73 1011.62
997.74 998.39 999.32 999.59 999.18 998.04 996.84 995.99 995.93 996.26 996.63 996.64 997.33 998.06 1000.29 1001.95 1003.56 1003.11 1003.26 1004.35 1004.82 1005.44 1006.48 1007.36 1008.31 1008.85 1009.48 1010.25 1010.75 1011.14 1011.66 1012.04 1012.37 1012.71 1012.86 1012.91 1012.96 1013.03 1013.02 1012.91 1012.71 1012.47 1012.34 1012.18
998.31 998.36 999.56 999.64 999.22 998.31 996.96 995.82 995.67 996.12 996.58 996.53 996.85 997.60 999.37 1000.30 1002.04 1003.29 1002.88 1003.72 1004.91 1005.85 1006.79 1007.52 1008.42 1009.15 1009.94 1010.77 1011.17 1011.76 1012.39 1012.76 1013.14 1013.24 1013.23 1013.12 1013.19 1013.35 1013.31 1013.28 1013.15 1012.84 1012.66 1012.55
999.51 999.38 999.57 999.31 998.68 997.40 996.16 995.79 995.73 996.36 997.02 996.20 996.61 997.29 998.27 999.49 1000.42 1002.07 1002.96 1004.11 1005.02 1006.07 1007.00 1007.77 1008.71 1009.75 1010.57 1011.08 1011.56 1012.37 1012.85 1013.28 1013.31 1013.25 1013.20 1013.20 1013.19 1013.26 1013.26 1013.21 1013.07 1012.96 1012.89 1012.74
999.94 999.84 999.74 999.28 998.54 997.84 996.16 995.86 996.42 996.22 995.70 995.70 996.17 997.06 998.21 999.17 1000.63 1001.88 1003.15 1004.38 1005.51 1006.49 1007.45 1008.41 1009.52 1010.57 1011.11 1011.45 1011.90 1012.81 1013.26 1013.32 1013.33 1013.35 1013.38 1013.25 1013.12 1013.09 1013.04 1013.10 1013.04 1012.91 1012.95 1013.02
999.99 999.59 999.46 998.96 998.03 996.95 996.40 996.97 996.30 995.76 995.76 995.53 995.90 996.77 998.05 999.58 1000.99 1002.17 1003.54 1004.85 1006.06 1006.99 1008.09 1009.09 1010.00 1010.96 1011.51 1011.88 1012.30 1013.06 1013.27 1013.40 1013.47 1013.51 1013.44 1013.26 1013.04 1013.03 1012.97 1013.03 1013.09 1013.14 1013.12 1013.22
1000.87 1000.07 999.84 999.23 998.50 997.71 996.15 997.37 997.90 995.51 995.54 995.51 995.57 996.54 997.80 999.47 1000.68 1002.29 1003.39 1004.76 1006.08 1007.18 1008.39 1009.32 1010.28 1011.19 1011.90 1012.21 1012.57 1012.94 1013.17 1013.24 1013.48 1013.54 1013.49 1013.36 1013.32 1013.28 1013.27 1013.20 1013.20 1013.15 1013.28 1013.42
1002.61 1001.93 1001.14 1000.16 999.94 998.65 999.16 998.55 999.42 996.47 995.51 995.61 995.80 996.52 997.64 998.87 1000.38 1001.60 1003.22 1004.37 1005.45 1006.86 1008.25 1009.34 1010.43 1011.38 1012.03 1012.29 1012.70 1012.98 1013.15 1013.36 1013.65 1013.75 1013.85 1013.82 1013.91 1013.91 1013.86 1013.88 1013.76 1013.66 1013.45 1013.32
1003.12 1002.98 1002.95 1002.35 1001.76 1001.20 1000.08 999.10 998.12 996.91 995.53 995.86 995.84 996.23 997.73 998.86 1000.18 1001.45 1002.97 1004.21 1005.45 1006.77 1008.11 1009.53 1010.74 1011.53 1012.06 1012.50 1012.93 1013.25 1013.43 1013.61 1013.83 1014.02 1014.13 1014.27 1014.33 1014.27 1014.21 1014.10 1013.83 1013.40 1013.32 1013.10
Thickness
5852 5804 5773 5812 5836 5852 5855 5858 5844 5860 5870 5812 5800 5822 5825 5832 5827 5814 5807 5802 5798 5800 5804 5800 5794 5792 5786 5784 5781 5780 5780 5782 5785 5783 5783 5785 5785 5789 5793 5795 5794 5789 5784 5782
5834 5816 5844 5859 5862 5859 5863 5859 5848 5864 5876 5847 5830 5822 5830 5832 5828 5827 5819 5811 5807 5807 5805 5803 5798 5792 5788 5785 5784 5780 5779 5780 5786 5788 5791 5789 5790 5793 5795 5798 5794 5791 5786 5783
5817 5839 5868 5863 5858 5854 5863 5857 5852 5845 5865 5855 5837 5812 5825 5835 5835 5831 5830 5826 5821 5814 5806 5805 5805 5801 5796 5789 5789 5785 5781 5786 5793 5797 5795 5793 5794 5792 5791 5792 5793 5790 5783 5776
5835 5867 5865 5861 5856 5865 5843 5877 5877 5866 5834 5803 5846 5768 5800 5825 5826 5830 5832 5832 5826 5819 5818 5813 5810 5806 5807 5801 5798 5793 5791 5794 5798 5799 5795 5792 5787 5784 5791 5793 5791 5788 5782 5779
5830 5849 5858 5853 5861 5877 5854 5881 5872 5867 5847 5843 5806 5775 5799 5816 5813 5826 5835 5838 5842 5835 5828 5823 5817 5817 5816 5812 5807 5804 5800 5800 5802 5801 5798 5793 5790 5792 5797 5794 5789 5786 5791 5790
5848 5880 5874 5875 5881 5880 5886 5873 5867 5862 5843 5784 5799 5788 5777 5802 5829 5829 5841 5845 5846 5841 5837 5834 5830 5824 5820 5820 5815 5811 5805 5804 5805 5804 5801 5797 5794 5794 5793 5787 5783 5784 5771 5761
5844 5858 5879 5889 5862 5874 5870 5846 5792 5791 5797 5779 5811 5796 5803 5826 5827 5833 5831 5831 5846 5846 5841 5836 5835 5830 5826 5822 5820 5816 5810 5806 5809 5808 5806 5803 5801 5798 5797 5789 5787 5784 5773 5755
5817 5810 5864 5889 5869 5858 5861 5856 5803 5788 5779 5791 5808 5792 5775 5813 5824 5822 5830 5825 5826 5847 5848 5844 5843 5844 5841 5835 5829 5827 5819 5815 5813 5812 5810 5810 5807 5803 5801 5796 5788 5791 5788 5780
5822 5830 5890 5893 5895 5881 5857 5832 5867 5833 5846 5783 5778 5785 5804 5811 5813 5809 5811 5821 5833 5824 5853 5854 5854 5853 5849 5846 5841 5837 5830 5825 5821 5820 5815 5811 5809 5804 5802 5801 5794 5795 5797 5789
5865 5826 5871 5885 5895 5890 5874 5880 5829 5822 5801 5766 5773 5758 5766 5778 5783 5779 5772 5811 5813 5781 5804 5858 5857 5852 5852 5851 5849 5845 5838 5832 5829 5825 5818 5814 5811 5808 5805 5800 5795 5791 5792 5792
5880 5850 5855 5875 5857 5850 5849 5839 5849 5843 5828 5786 5762 5766 5780 5779 5770 5758 5757 5791 5785 5783 5812 5849 5852 5859 5853 5854 5849 5845 5837 5829 5824 5823 5819 5814 5809 5806 5803 5800 5796 5792 5789 5789
5882 5854 5822 5851 5874 5870 5862 5854 5853 5801 5806 5808 5787 5759 5794 5787 5777 5767 5777 5776 5792 5789 5853 5851 5851 5852 5850 5851 5848 5841 5835 5828 5825 5824 5819 5814 5811 5808 5804 5800 5798 5797 5790 5789
5869 5837 5798 5826 5838 5857 5849 5857 5866 5853 5834 5807 5777 5761 5793 5791 5784 5793 5799 5794 5819 5847 5846 5846 5847 5844 5842 5842 5840 5837 5833 5828 5827 5823 5820 5817 5815 5810 5806 5802 5801 5798 5796 5796
5873 5846 5824 5789 5811 5839 5830 5849 5857 5846 5797 5807 5800 5772 5778 5785 5795 5798 5813 5807 5818 5832 5837 5837 5836 5837 5835 5832 5831 5830 5827 5825 5824 5820 5817 5815 5811 5809 5804 5803 5801 5803 5804 5802
5859 5820 5841 5839 5843 5847 5848 5850 5851 5837 5840 5812 5801 5794 5791 5808 5820 5816 5820 5819 5819 5815 5832 5833 5828 5825 5826 5826 5823 5822 5820 5818 5817 5812 5810 5808 5807 5806 5804 5801 5800 5802 5801 5801
5858 5816 5838 5821 5844 5848 5841 5848 5856 5849 5849 5848 5834 5804 5820 5819 5819 5821 5827 5823 5817 5809 5831 5826 5820 5819 5820 5816 5814 5813 5811 5810 5809 5802 5797 5795 5797 5797 5796 5794 5794 5795 5795 5794
5841 5824 5813 5794 5831 5839 5816 5839 5850 5850 5851 5843 5813 5829 5824 5805 5811 5822 5820 5819 5809 5810 5822 5816 5817 5817 5812 5809 5808 5804 5803 5802 5797 5792 5789 5787 5787 5785 5785 5786 5786 5786 5786 5786
5832 5825 5819 5797 5819 5782 5832 5870 5867 5853 5859 5857 5860 5822 5824 5824 5825 5825 5828 5819 5804 5824 5818 5813 5813 5808 5806 5804 5801 5798 5795 5791 5787 5782 5779 5778 5776 5774 5774 5775 5775 5776 5778 5778
5846 5824 5799 5785 5792 5816 5836 5855 5841 5832 5830 5858 5854 5860 5829 5820 5811 5820 5831 5828 5822 5819 5813 5809 5803 5803 5800 5795 5792 5788 5784 5780 5776 5772 5770 5769 5767 5764 5764 5763 5765 5768 5768 5769
5837 5835 5802 5795 5782 5771 5821 5860 5863 5855 5798 5856 5858 5859 5840 5837 5800 5805 5836 5833 5824 5817 5813 5808 5804 5800 5794 5787 5785 5778 5772 5769 5765 5764 5764 5764 5761 5758 5756 5755 5757 5759 5760 5759
5795 5798 5788 5787 5784 5806 5851 5864 5867 5798 5798 5860 5859 5852 5846 5827 5834 5833 5836 5825 5821 5816 5810 5806 5798 5788 5784 5781 5777 5768 5763 5759 5760 5760 5759 5758 5757 5754 5752 5751 5752 5751 5751 5752
5778 5776 5775 5786 5783 5764 5859 5854 5823 5832 5856 5860 5863 5854 5845 5842 5837 5835 5828 5819 5812 5806 5801 5796 5786 5777 5774 5773 5769 5760 5755 5757 5756 5755 5753 5752 5751 5750 5749 5747 5746 5746 5745 5742
5765 5789 5778 5793 5792 5830 5847 5836 5852 5859 5850 5855 5851 5855 5849 5837 5827 5825 5817 5810 5802 5798 5793 5786 5778 5768 5764 5763 5760 5752 5751 5751 5750 5748 5748 5748 5747 5745 5744 5742 5739 5738 5736 5733
5772 5789 5777 5787 5806 5815 5836 5820 5823 5853 5852 5856 5856 5850 5845 5830 5827 5819 5814 5805 5798 5792 5784 5779 5770 5760 5755 5754 5751 5748 5747 5747 5745 5742 5741 5742 5739 5737 5735 5734 5732 5731 5727 5724
5745 5761 5762 5772 5781 5803 5796 5800 5794 5827 5852 5851 5852 5841 5836 5830 5822 5820 5811 5805 5799 5791 5783 5776 5766 5756 5751 5749 5745 5744 5741 5740 5735 5734 5732 5731 5728 5725 5724 5722 5720 5720 5719 5717
5733 5729 5723 5729 5753 5762 5780 5794 5809 5820 5837 5840 5844 5843 5828 5825 5814 5814 5808 5805 5796 5784 5776 5766 5756 5750 5746 5742 5737 5735 5733 5731 5727 5724 5723 5719 5717 5716 5714 5711 5711 5714 5712 5712